FW3072 Weather Reports


time (UTC)temp
C
wind
direction
speed
KPH
gust
KPH
rain 1hr
cm
rain 24hr
cm
rain mn
cm
humidity
%
barometer
mb
20260503184202 12 277 11.3 30.6 0.00 0.00 0.00 56 1011.3
20260503183202 12 254 12.9 29.0 0.00 0.00 0.00 55 1011.5
20260503182205 12 238 8.0 22.5 0.00 0.00 0.00 52 1011.6
20260503181202 12 252 8.0 19.3 0.00 0.00 0.00 55 1011.6
20260503180202 11 227 8.0 25.7 0.00 0.00 0.00 54 1011.8
20260503175202 11 219 6.4 19.3 0.00 0.00 0.00 59 1011.9
20260503174224 10 242 6.4 19.3 0.00 0.00 0.00 60 1012.2
20260503173202 10 255 4.8 17.7 0.00 0.00 0.00 61 1012.3
20260503172203 11 228 6.4 16.1 0.00 0.00 0.00 64 1012.6
20260503171225 11 227 6.4 19.3 0.00 0.00 0.00 62 1012.6
20260503170202 10 222 6.4 25.7 0.00 0.00 0.00 60 1012.7
20260503160203 10 238 6.4 12.9 0.00 0.00 0.00 58 1013.4
20260503150202 9 242 8.0 19.3 0.00 0.00 0.00 64 1013.8
20260503140204 8 269 9.7 25.7 0.00 0.00 0.00 75 1014.0
20260503131202 7 265 6.4 19.3 0.00 0.00 0.00 80 1014.2
20260503130223 6 211 4.8 14.5 0.00 0.00 0.00 81 1014.2
20260503120202 3 235 1.6 4.8 0.00 0.00 0.00 89 1014.3
20260503110225 0 242 0.0 0.0 0.00 0.00 0.00 89 1014.4
20260503100204 -1 242 0.0 0.0 0.00 0.00 0.00 88 1014.3
20260503090202 -1 242 0.0 0.0 0.00 0.00 0.00 87 1014.6
20260503081201 0 242 0.0 0.0 0.00 0.00 0.00 86 1014.7
20260503080204 0 242 0.0 0.0 0.00 0.00 0.00 86 1014.7
20260503072203 0 242 0.0 0.0 0.00 0.00 0.00 85 1014.6
20260503071225 0 242 0.0 0.0 0.00 0.00 0.00 84 1014.6
20260503070226 0 242 0.0 0.0 0.00 0.00 0.00 84 1014.5
20260503060204 0 242 0.0 0.0 0.00 0.00 0.00 83 1014.9
20260503054202 1 242 0.0 0.0 0.00 0.00 0.00 83 1014.9
20260503053202 1 242 0.0 0.0 0.00 0.00 0.00 82 1014.9
20260503052203 1 242 0.0 0.0 0.00 0.00 0.00 82 1015.0
20260503051204 1 242 0.0 0.0 0.00 0.00 0.00 81 1015.1
20260503050202 1 242 0.0 0.0 0.00 0.00 0.00 81 1015.2
20260503045203 2 242 0.0 0.0 0.00 0.00 0.00 80 1015.1
20260503044202 2 242 0.0 0.0 0.00 0.00 0.00 80 1015.2
20260503043223 2 242 0.0 0.0 0.00 0.00 0.00 79 1015.3
20260503042202 2 242 0.0 0.0 0.00 0.00 0.00 79 1015.3
20260503041202 3 242 0.0 0.0 0.00 0.00 0.00 78 1015.4
20260503040224 3 242 0.0 0.0 0.00 0.00 0.00 78 1015.4
20260503035202 3 242 0.0 0.0 0.00 0.00 0.00 78 1015.4
20260503034202 4 242 0.0 0.0 0.00 0.00 0.00 78 1015.4
20260503033223 4 242 0.0 0.0 0.00 0.00 0.00 78 1015.4
20260503032203 4 242 0.0 0.0 0.00 0.00 0.00 77 1015.4
20260503031202 4 242 0.0 0.0 0.00 0.00 0.00 76 1015.4
20260503030202 4 242 0.0 0.0 0.00 0.00 0.00 75 1015.5
20260503025203 5 242 0.0 0.0 0.00 0.00 0.00 75 1015.6
20260503024202 5 242 0.0 0.0 0.00 0.00 0.00 74 1015.6
20260503023204 5 242 0.0 0.0 0.00 0.00 0.00 73 1015.6
20260503022202 5 242 0.0 0.0 0.00 0.00 0.00 74 1015.7
20260503021204 5 242 0.0 3.2 0.00 0.00 0.00 75 1015.8
20260503020202 5 241 0.0 1.6 0.00 0.00 0.00 74 1015.8
20260503015203 5 242 0.0 4.8 0.00 0.00 0.00 74 1015.8
20260503014202 5 241 1.6 4.8 0.00 0.00 0.00 74 1015.8
20260503013205 5 241 1.6 8.0 0.00 0.00 0.00 74 1015.8
20260503012245 5 288 3.2 11.3 0.00 0.00 0.00 74 1015.9
20260503011202 5 283 6.4 12.9 0.00 0.00 0.00 74 1015.8
20260503010202 5 291 3.2 11.3 0.00 0.00 0.00 73 1015.8
20260503005202 5 262 1.6 8.0 0.00 0.00 0.00 73 1015.7
20260503004224 5 284 3.2 12.9 0.00 0.00 0.00 73 1015.7
20260503003201 5 301 1.6 9.7 0.00 0.00 0.00 72 1015.5
20260503002223 5 265 1.6 6.4 0.00 0.00 0.00 72 1015.4
20260503001202 5 249 1.6 11.3 0.00 0.00 0.00 71 1015.4
20260503000204 5 295 1.6 11.3 0.00 0.00 0.00 71 1015.4
20260502235202 5 266 0.0 14.5 0.00 0.00 0.00 70 1015.4
20260502234203 5 266 6.4 16.1 0.00 0.00 0.00 69 1015.3
20260502233248 5 285 3.2 12.9 0.00 0.00 0.00 69 1015.3
20260502232203 5 289 4.8 12.9 0.00 0.00 0.00 68 1015.4
20260502231202 5 301 4.8 16.1 0.00 0.00 0.00 69 1015.3
20260502230203 6 265 4.8 11.3 0.00 0.00 0.00 69 1015.2
20260502225202 6 233 3.2 9.7 0.00 0.00 0.00 68 1015.2
20260502224202 6 291 6.4 11.3 0.00 0.00 0.00 68 1015.2
20260502223202 6 308 3.2 11.3 0.00 0.00 0.00 68 1015.2
20260502222223 6 247 4.8 11.3 0.00 0.00 0.00 68 1015.2
20260502221202 6 284 3.2 12.9 0.00 0.00 0.00 68 1015.1
20260502220202 6 298 4.8 17.7 0.00 0.00 0.00 67 1015.2
20260502215203 6 281 11.3 17.7 0.00 0.00 0.00 68 1015.2
20260502214202 6 292 4.8 16.1 0.00 0.00 0.00 69 1015.1
20260502213202 6 286 11.3 19.3 0.00 0.00 0.00 69 1015.2
20260502212202 6 266 1.6 12.9 0.00 0.00 0.00 70 1015.1
20260502211204 6 276 4.8 14.5 0.00 0.00 0.00 71 1015.0
20260502210203 6 219 4.8 12.9 0.00 0.00 0.00 71 1015.0
20260502205204 6 243 4.8 12.9 0.00 0.00 0.00 71 1015.0
20260502204224 6 276 4.8 12.9 0.00 0.00 0.00 72 1015.1
20260502202223 6 266 4.8 14.5 0.00 0.00 0.00 71 1015.2
20260502201201 6 287 11.3 20.9 0.00 0.00 0.00 71 1015.3
20260502200223 5 300 3.2 19.3 0.00 0.00 0.00 71 1015.3
20260502195202 5 230 6.4 16.1 0.00 0.00 0.00 71 1015.4
20260502194203 5 223 4.8 12.9 0.00 0.00 0.00 70 1015.5
20260502193223 5 275 3.2 12.9 0.00 0.00 0.00 72 1015.5
20260502192202 5 278 3.2 20.9 0.00 0.00 0.00 71 1015.6
20260502191202 5 265 4.8 16.1 0.00 0.00 0.00 72 1015.7
20260502190202 5 267 3.2 16.1 0.00 0.00 0.00 71 1015.7